Location: Newark
(54.2500°N, 9.1833°E)
Time: 07:28:13
(UTC+00:00)

S-56A Canister/Altair - All Passes

Search period start: 10 December 2019 00:00
Search period end: 20 December 2019 00:00
Orbit: 633 x 2500 km, 38.9° (Epoch: 09 December)

Date Brightness Start Highest point End Pass type
(mag) Time Alt. Az. Time Alt. Az. Time Alt. Az.
10 Dec - 07:59:20 10° S 08:08:20 20° SE 08:17:39 10° E daylight
10 Dec - 09:59:23 10° SW 10:12:01 36° SSE 10:24:15 10° E daylight
10 Dec - 12:03:05 10° WSW 12:16:38 42° S 12:28:28 10° ESE daylight
10 Dec - 14:08:43 10° W 14:20:51 33° SSW 14:30:46 10° SSE daylight
10 Dec - 16:17:12 10° WSW 16:23:30 15° SW 16:29:01 10° SSW visible
11 Dec - 07:27:18 10° S 07:35:18 18° SE 07:43:42 10° E daylight
11 Dec - 09:26:28 10° SSW 09:38:42 35° SSE 09:51:01 10° E daylight
11 Dec - 11:29:45 10° WSW 11:43:17 43° S 11:55:34 10° ESE daylight
11 Dec - 13:35:04 10° W 13:47:43 35° SSW 13:58:17 10° SE daylight
11 Dec - 15:42:45 10° W 15:50:41 18° SW 15:57:32 10° S visible
12 Dec - 06:55:35 10° SSE 07:02:19 15° SE 07:09:27 10° ESE visible
12 Dec - 08:53:41 10° SSW 09:05:26 33° SSE 09:17:39 10° E daylight
12 Dec - 10:56:31 10° WSW 11:09:55 43° S 11:22:35 10° ESE daylight
12 Dec - 13:01:30 10° WSW 13:14:30 37° SSW 13:25:41 10° SE daylight
12 Dec - 15:08:35 10° W 15:17:48 21° SW 15:25:43 10° S daylight
13 Dec - 06:24:23 10° SSE 06:29:24 13° SE 06:34:41 10° ESE visible
13 Dec - 08:21:02 10° SSW 08:32:12 31° SSE 08:44:11 10° E daylight
13 Dec - 10:23:22 10° SW 10:36:32 42° S 10:49:30 10° ESE daylight
13 Dec - 12:28:00 10° WSW 12:41:13 39° SSW 12:52:59 10° SE daylight
13 Dec - 14:34:36 10° W 14:44:50 23° SW 14:53:41 10° S daylight
14 Dec - 05:54:50 10° SE 05:56:32 10° SE 05:58:17 10° ESE visible
14 Dec - 07:48:31 10° SSW 07:59:01 28° SSE 08:10:36 10° E daylight
14 Dec - 09:50:20 10° SW 10:03:09 41° S 10:16:18 10° ESE daylight
14 Dec - 11:54:36 10° WSW 12:07:54 41° SSW 12:20:11 10° SE daylight
14 Dec - 14:00:45 10° W 14:11:47 26° SW 14:21:28 10° SSE daylight
15 Dec - 07:16:08 10° SSW 07:25:54 26° SE 07:36:54 10° E daylight
15 Dec - 09:17:23 10° SW 09:29:48 40° SSE 09:43:01 10° ESE daylight
15 Dec - 11:21:18 10° WSW 11:34:33 42° S 11:47:16 10° SE daylight
15 Dec - 13:27:02 10° W 13:38:41 29° SSW 13:49:06 10° SSE daylight
15 Dec - 15:38:45 10° WSW 15:41:08 11° SW 15:43:28 10° SW visible
16 Dec - 06:43:54 10° S 06:52:50 23° SE 07:03:04 10° E visible
16 Dec - 08:44:34 10° SW 08:56:29 39° SSE 09:09:39 10° ESE daylight
16 Dec - 10:48:05 10° WSW 11:01:10 42° S 11:14:15 10° ESE daylight
16 Dec - 12:53:26 10° W 13:05:31 31° SSW 13:16:36 10° SSE daylight
16 Dec - 15:02:46 10° WSW 15:08:18 13° SW 15:13:30 10° SSW daylight
17 Dec - 06:11:52 10° S 06:19:52 20° SE 06:29:05 10° E visible
17 Dec - 08:11:50 10° SW 08:23:11 37° SSE 08:36:11 10° ESE daylight
17 Dec - 10:14:58 10° WSW 10:27:47 43° S 10:41:08 10° ESE daylight
17 Dec - 12:19:57 10° W 12:32:17 33° SSW 12:43:57 10° SSE daylight
17 Dec - 14:28:04 10° WSW 14:35:24 16° SW 14:42:15 10° SSW daylight
18 Dec - 05:40:04 10° S 05:46:58 18° SE 05:54:54 10° E visible
18 Dec - 07:39:13 10° SW 07:49:58 35° SSE 08:02:38 10° E daylight
18 Dec - 09:41:57 10° WSW 09:54:24 43° S 10:07:55 10° ESE daylight
18 Dec - 11:46:34 10° W 11:59:00 35° SSW 12:11:11 10° SE daylight
18 Dec - 13:53:49 10° W 14:02:25 18° SW 14:10:30 10° S daylight
19 Dec - 05:08:35 10° SSE 05:14:09 15° SE 05:20:25 10° ESE visible
19 Dec - 07:06:43 10° SSW 07:16:49 33° SSE 07:29:00 10° E daylight
19 Dec - 09:09:02 10° WSW 09:21:03 42° S 09:34:36 10° ESE daylight
19 Dec - 11:13:17 10° W 11:25:41 37° SSW 11:38:18 10° SE daylight
19 Dec - 13:19:52 10° W 13:29:22 21° SW 13:38:27 10° S daylight
